DW2659 Weather Reports


time (UTC)temp
C
wind
direction
speed
KPH
gust
KPH
rain 1hr
cm
rain 24hr
cm
rain mn
cm
humidity
%
barometer
mb
20260906215403 35 344 0.0 0.0 0.00 0.00 0.00 51 1009.1
20260906214905 36 344 0.0 1.6 0.00 0.00 0.00 49 1009.1
20260906214403 36 344 0.0 0.0 0.00 0.00 0.00 47 1009.1
20260906213904 37 344 0.0 1.6 0.00 0.00 0.00 45 1009.1
20260906213405 37 344 0.0 1.6 0.00 0.00 0.00 44 1009.1
20260906212903 37 344 0.0 1.6 0.00 0.00 0.00 45 1008.7
20260906212404 38 344 0.0 1.6 0.00 0.00 0.00 44 1008.7
20260906211905 38 344 1.6 3.2 0.00 0.00 0.00 42 1008.7
20260906211403 38 52 0.0 3.2 0.00 0.00 0.00 43 1008.9
20260906210904 37 42 0.0 1.6 0.00 0.00 0.00 41 1008.9
20260906210406 37 42 1.6 3.2 0.00 0.00 0.00 43 1008.9
20260906205903 37 42 1.6 3.2 0.00 0.00 0.00 43 1009.1
20260906205404 37 13 3.2 4.8 0.00 0.00 0.00 41 1009.1
20260906204905 37 21 0.0 3.2 0.00 0.00 0.00 44 1009.1
20260906204404 37 38 1.6 4.8 0.00 0.00 0.00 43 1009.5
20260906203406 37 35 1.6 4.8 0.00 0.00 0.00 44 1009.5
20260906202904 37 353 0.0 3.2 0.00 0.00 0.00 45 1009.5
20260906201403 36 91 0.0 11.3 0.00 0.00 0.00 44 1010.0
20260906200904 36 86 1.6 4.8 0.00 0.00 0.00 45 1010.0
20260906200404 37 65 1.6 4.8 0.00 0.00 0.00 44 1010.0
20260906195904 37 150 1.6 4.8 0.00 0.00 0.00 44 1010.2
20260906195404 37 54 1.6 4.8 0.00 0.00 0.00 42 1010.2
20260906194905 37 34 1.6 4.8 0.00 0.00 0.00 44 1010.2
20260906194404 36 83 0.0 4.8 0.00 0.00 0.00 44 1010.3
20260906193904 36 26 1.6 4.8 0.00 0.00 0.00 44 1010.9
20260906193404 36 60 3.2 4.8 0.00 0.00 0.00 44 1010.9
20260906192905 36 69 0.0 3.2 0.00 0.00 0.00 44 1010.9
20260906191405 36 64 1.6 4.8 0.00 0.00 0.00 44 1010.9
20260906190904 36 5 1.6 4.8 0.00 0.00 0.00 46 1010.9
20260906190403 36 62 1.6 4.8 0.00 0.00 0.00 43 1010.9
20260906185904 36 57 1.6 4.8 0.00 0.00 0.00 40 1011.1
20260906185405 36 312 1.6 4.8 0.00 0.00 0.00 43 1011.1
20260906184903 36 41 1.6 4.8 0.00 0.00 0.00 42 1011.1
20260906184404 36 51 3.2 8.0 0.00 0.00 0.00 44 1011.2
20260906183905 35 58 1.6 9.7 0.00 0.00 0.00 48 1011.2
20260906183404 35 131 1.6 8.0 0.00 0.00 0.00 46 1011.2
20260906182904 35 29 1.6 4.8 0.00 0.00 0.00 48 1011.3
20260906182406 35 349 0.0 4.8 0.00 0.00 0.00 46 1011.4
20260906181903 35 61 1.6 3.2 0.00 0.00 0.00 50 1011.4
20260906181402 35 64 4.8 8.0 0.00 0.00 0.00 49 1011.4
20260906180904 35 71 1.6 9.7 0.00 0.00 0.00 49 1011.8
20260906180403 34 132 3.2 9.7 0.00 0.00 0.00 48 1011.8
20260906175902 34 83 1.6 4.8 0.00 0.00 0.00 50 1011.8
20260906174402 35 50 1.6 8.0 0.00 0.00 0.00 49 1012.0
20260906173903 35 63 3.2 4.8 0.00 0.00 0.00 52 1012.0
20260906173403 35 286 1.6 4.8 0.00 0.00 0.00 49 1012.0
20260906172903 34 55 1.6 8.0 0.00 0.00 0.00 51 1012.2
20260906172404 34 45 1.6 4.8 0.00 0.00 0.00 50 1012.2
20260906171902 34 60 1.6 4.8 0.00 0.00 0.00 52 1012.2
20260906171403 33 29 3.2 4.8 0.00 0.00 0.00 53 1012.2
20260906170402 33 60 3.2 4.8 0.00 0.00 0.00 51 1012.2
20260906165404 33 17 1.6 4.8 0.00 0.00 0.00 52 1012.4
20260906164403 33 58 1.6 8.0 0.00 0.00 0.00 53 1012.4
20260906163403 33 68 3.2 4.8 0.00 0.00 0.00 53 1012.7
20260906162903 33 38 1.6 4.8 0.00 0.00 0.00 53 1012.7
20260906161403 33 70 1.6 4.8 0.00 0.00 0.00 56 1012.9
20260906160403 33 59 1.6 4.8 0.00 0.00 0.00 57 1012.9
20260906155902 32 53 1.6 4.8 0.00 0.00 0.00 56 1012.8
20260906155403 32 61 1.6 4.8 0.00 0.00 0.00 59 1013.0
20260906154902 32 78 0.0 3.2 0.00 0.00 0.00 58 1013.0
20260906154402 32 38 3.2 8.0 0.00 0.00 0.00 58 1013.0
20260906153402 32 17 1.6 4.8 0.00 0.00 0.00 59 1013.0
20260906152903 32 85 1.6 4.8 0.00 0.00 0.00 59 1013.0
20260906152404 32 60 1.6 4.8 0.00 0.00 0.00 61 1013.0
20260906151903 32 64 1.6 4.8 0.00 0.00 0.00 62 1013.0
20260906151402 31 44 1.6 3.2 0.00 0.00 0.00 63 1013.0
20260906150904 31 58 1.6 4.8 0.00 0.00 0.00 62 1013.0
20260906150402 32 55 1.6 4.8 0.00 0.00 0.00 61 1013.0
20260906145903 31 40 1.6 4.8 0.00 0.00 0.00 62 1013.0
20260906145403 31 53 1.6 4.8 0.00 0.00 0.00 61 1013.0
20260906144903 31 17 1.6 4.8 0.00 0.00 0.00 63 1013.0
20260906144403 31 6 0.0 4.8 0.00 0.00 0.00 63 1012.9
20260906143904 30 41 1.6 3.2 0.00 0.00 0.00 67 1012.9
20260906143403 30 64 1.6 4.8 0.00 0.00 0.00 65 1012.9
20260906142903 30 85 1.6 3.2 0.00 0.00 0.00 65 1012.9
20260906141902 30 15 1.6 3.2 0.00 0.00 0.00 68 1012.9
20260906141402 30 41 1.6 4.8 0.00 0.00 0.00 68 1013.0
20260906140403 29 76 1.6 3.2 0.00 0.00 0.00 70 1013.1
20260906135903 29 76 1.6 4.8 0.00 0.00 0.00 71 1013.2
20260906135405 28 75 0.0 1.6 0.00 0.00 0.00 73 1013.2
20260906134902 28 75 1.6 3.2 0.00 0.00 0.00 74 1013.1
20260906133904 27 101 3.2 4.8 0.00 0.00 0.00 78 1013.2
20260906133402 26 101 1.6 3.2 0.00 0.00 0.00 80 1013.2
20260906132903 26 101 0.0 1.6 0.00 0.00 0.00 83 1013.3
20260906132404 25 101 0.0 3.2 0.00 0.00 0.00 84 1013.3
20260906131903 25 101 0.0 1.6 0.00 0.00 0.00 86 1013.3
20260906131403 25 91 1.6 3.2 0.00 0.00 0.00 87 1013.1
20260906130402 24 240 0.0 1.6 0.00 0.00 0.00 89 1013.1
20260906124903 23 240 1.6 3.2 0.00 0.00 0.00 90 1013.1
20260906124402 23 240 0.0 1.6 0.00 0.00 0.00 92 1013.0
20260906123403 23 240 0.0 1.6 0.00 0.00 0.00 92 1013.0
20260906122403 23 240 0.0 1.6 0.00 0.00 0.00 92 1012.9
20260906121903 22 240 0.0 1.6 0.00 0.00 0.00 92 1012.9
20260906120904 22 240 0.0 0.0 0.00 0.00 0.00 92 1012.8
20260906115903 22 240 0.0 0.0 0.00 0.00 0.00 92 1012.6
20260906115405 22 240 0.0 0.0 0.00 0.00 0.00 92 1012.6
20260906114903 22 240 0.0 0.0 0.00 0.00 0.00 91 1012.6
20260906114403 22 240 0.0 0.0 0.00 0.00 0.00 91 1012.4
20260906113902 22 240 0.0 0.0 0.00 0.00 0.00 91 1012.4
20260906113404 22 240 0.0 0.0 0.00 0.00 0.00 91 1012.4
20260906112903 22 240 0.0 0.0 0.00 0.00 0.00 91 1012.4
20260906111904 22 240 1.6 1.6 0.00 0.00 0.00 91 1012.4
20260906110405 22 240 0.0 0.0 0.00 0.00 0.00 91 1012.1
20260906105403 22 240 0.0 0.0 0.00 0.00 0.00 91 1012.1
20260906103903 22 240 0.0 0.0 0.00 0.00 0.00 90 1012.2
20260906103403 22 240 0.0 0.0 0.00 0.00 0.00 90 1012.2
20260906102904 22 240 0.0 1.6 0.00 0.00 0.00 90 1012.2
20260906101404 23 240 0.0 0.0 0.00 0.00 0.00 90 1012.2
20260906100903 23 240 0.0 1.6 0.00 0.00 0.00 90 1012.3
20260906100403 23 240 0.0 1.6 0.00 0.00 0.00 90 1012.3
20260906095403 23 240 0.0 1.6 0.00 0.00 0.00 89 1012.3
20260906094903 23 240 0.0 1.6 0.00 0.00 0.00 89 1012.3
20260906094403 23 240 0.0 1.6 0.00 0.00 0.00 89 1012.4
20260906093905 23 240 1.6 3.2 0.00 0.00 0.00 89 1012.4
20260906093403 23 240 0.0 1.6 0.00 0.00 0.00 89 1012.4
20260906092903 23 240 0.0 3.2 0.00 0.00 0.00 89 1012.5
20260906092404 23 145 0.0 3.2 0.00 0.00 0.00 90 1012.5
20260906091903 23 126 0.0 1.6 0.00 0.00 0.00 90 1012.5
20260906091403 23 127 1.6 3.2 0.00 0.00 0.00 89 1012.6
20260906090904 23 209 0.0 0.0 0.00 0.00 0.00 90 1012.6
20260906090403 23 209 0.0 1.6 0.00 0.00 0.00 90 1012.6
20260906085404 22 106 0.0 1.6 0.00 0.00 0.00 90 1012.6
20260906084903 22 106 0.0 3.2 0.00 0.00 0.00 90 1012.6
20260906083904 22 306 1.6 8.0 0.00 0.00 0.00 91 1012.3
20260906082903 22 57 1.6 3.2 0.00 0.00 0.00 91 1012.3
20260906082403 22 121 0.0 1.6 0.00 0.00 0.00 91 1012.3
20260906081904 22 121 1.6 1.6 0.00 0.00 0.00 91 1012.3
20260906081403 22 121 0.0 0.0 0.00 0.00 0.00 91 1012.4
20260906080405 22 121 0.0 1.6 0.00 0.00 0.00 91 1012.4
20260906075403 22 121 1.6 3.2 0.00 0.00 0.00 91 1012.4
20260906074903 22 197 1.6 3.2 0.00 0.00 0.00 92 1012.4
20260906074404 22 197 1.6 4.8 0.00 0.00 0.00 92 1012.0
20260906073903 22 294 1.6 3.2 0.00 0.00 0.00 92 1012.0
20260906072903 22 119 0.0 0.0 0.00 0.00 0.00 92 1011.9
20260906072404 22 119 0.0 1.6 0.00 0.00 0.00 92 1011.9
20260906071903 22 119 0.0 1.6 0.00 0.00 0.00 92 1011.9
20260906071403 22 119 0.0 1.6 0.00 0.00 0.00 92 1012.1
20260906070904 22 119 0.0 0.0 0.00 0.00 0.00 92 1012.1
20260906070403 22 119 0.0 0.0 0.00 0.00 0.00 92 1012.1
20260906065903 22 119 0.0 0.0 0.00 0.00 0.00 92 1012.3
20260906065404 22 119 0.0 0.0 0.00 0.00 0.00 92 1012.3
20260906064404 22 119 1.6 1.6 0.00 0.00 0.00 92 1012.3
20260906063403 22 119 0.0 1.6 0.00 0.00 0.00 91 1012.4
20260906062903 22 119 1.6 1.6 0.00 0.00 0.00 91 1012.4
20260906062404 22 119 1.6 1.6 0.00 0.00 0.00 91 1012.4
20260906061903 22 119 0.0 0.0 0.00 0.00 0.00 91 1012.4
20260906061403 22 119 0.0 1.6 0.00 0.00 0.00 91 1012.4
20260906060904 22 119 1.6 1.6 0.00 0.00 0.00 91 1012.4
20260906060403 22 119 0.0 1.6 0.00 0.00 0.00 91 1012.4
20260906055405 22 119 0.0 1.6 0.00 0.00 0.00 91 1012.6
20260906054904 22 119 1.6 3.2 0.00 0.00 0.00 91 1012.6
20260906054403 22 119 0.0 1.6 0.00 0.00 0.00 90 1012.7
20260906053904 22 119 1.6 3.2 0.00 0.00 0.00 91 1012.7
20260906053403 22 119 1.6 3.2 0.00 0.00 0.00 90 1012.7
20260906052903 22 119 0.0 0.0 0.00 0.00 0.00 90 1012.7
20260906052404 22 119 0.0 1.6 0.00 0.00 0.00 90 1012.7
20260906051904 22 119 0.0 1.6 0.00 0.00 0.00 90 1012.7
20260906051404 22 119 0.0 0.0 0.00 0.00 0.00 90 1012.7
20260906050904 22 119 0.0 3.2 0.00 0.00 0.00 90 1012.7
20260906050403 22 119 1.6 3.2 0.00 0.00 0.00 90 1012.7
20260906045903 22 119 0.0 1.6 0.00 0.00 0.00 90 1013.2
20260906045404 22 119 1.6 1.6 0.00 0.00 0.00 90 1013.2
20260906044903 23 119 1.6 1.6 0.00 0.00 0.00 90 1013.2
20260906044403 23 119 1.6 1.6 0.00 0.00 0.00 90 1013.2
20260906043905 23 119 0.0 1.6 0.00 0.00 0.00 89 1013.2
20260906043403 23 119 0.0 3.2 0.00 0.00 0.00 89 1013.2
20260906042903 23 119 0.0 3.2 0.00 0.00 0.00 89 1013.2
20260906042405 23 119 0.0 3.2 0.00 0.00 0.00 89 1013.3
20260906041403 23 11 0.0 1.6 0.00 0.00 0.00 89 1013.2
20260906040904 23 11 1.6 3.2 0.00 0.00 0.00 89 1013.2
20260906040403 23 11 1.6 1.6 0.00 0.00 0.00 89 1013.2
20260906035903 23 11 1.6 1.6 0.00 0.00 0.00 89 1013.1
20260906034904 23 11 0.0 1.6 0.00 0.00 0.00 89 1013.1
20260906034403 23 11 0.0 3.2 0.00 0.00 0.00 88 1013.0
20260906033903 23 11 1.6 3.2 0.00 0.00 0.00 88 1013.0
20260906033404 23 11 0.0 1.6 0.00 0.00 0.00 87 1013.0
20260906032903 23 11 1.6 1.6 0.00 0.00 0.00 87 1012.9
20260906032403 23 11 0.0 1.6 0.00 0.00 0.00 87 1012.9
20260906031905 23 11 0.0 0.0 0.00 0.00 0.00 87 1012.9
20260906030903 23 11 1.6 1.6 0.00 0.00 0.00 86 1012.9
20260906030405 23 11 0.0 0.0 0.00 0.00 0.00 86 1012.9
20260906025903 23 11 0.0 0.0 0.00 0.00 0.00 85 1012.9
20260906024905 23 11 0.0 1.6 0.00 0.00 0.00 85 1012.9
20260906023904 24 11 0.0 0.0 0.00 0.00 0.00 85 1012.7
20260906022904 24 11 0.0 0.0 0.00 0.00 0.00 84 1012.5
20260906022404 24 11 0.0 0.0 0.00 0.00 0.00 84 1012.5
20260906021903 24 11 0.0 0.0 0.00 0.00 0.00 84 1012.5
20260906021405 24 11 0.0 0.0 0.00 0.00 0.00 84 1012.5
20260906020903 25 11 0.0 0.0 0.00 0.00 0.00 84 1012.5
20260906020404 25 11 0.0 0.0 0.00 0.00 0.00 83 1012.5
20260906015905 25 11 0.0 1.6 0.00 0.00 0.00 83 1012.7
20260906015404 25 11 1.6 3.2 0.00 0.00 0.00 83 1012.6
20260906014904 25 11 0.0 0.0 0.00 0.00 0.00 82 1012.6
20260906014405 25 11 0.0 0.0 0.00 0.00 0.00 82 1012.4
20260906013904 25 11 0.0 1.6 0.00 0.00 0.00 82 1012.4
20260906013405 25 11 0.0 1.6 0.00 0.00 0.00 82 1012.4
20260906012904 25 11 0.0 1.6 0.00 0.00 0.00 82 1012.2
20260906011905 25 11 0.0 0.0 0.00 0.00 0.00 82 1012.2
20260906010903 25 11 0.0 0.0 0.00 0.00 0.00 83 1011.4
20260906010405 25 11 0.0 0.0 0.00 0.00 0.00 83 1011.4
20260906005904 25 11 0.0 0.0 0.00 0.00 0.00 83 1011.4
20260906005403 25 11 0.0 1.6 0.00 0.00 0.00 82 1011.4
20260906004904 25 11 0.0 1.6 0.00 0.00 0.00 83 1011.4
20260906004403 26 11 0.0 0.0 0.00 0.00 0.00 82 1011.3
20260906003903 26 11 0.0 0.0 0.00 0.00 0.00 81 1011.3
20260906003405 26 11 0.0 3.2 0.00 0.00 0.00 81 1011.3
20260906002904 26 11 0.0 1.6 0.00 0.00 0.00 80 1011.4
20260906002403 26 11 1.6 3.2 0.00 0.00 0.00 80 1011.5
20260906001905 26 11 0.0 3.2 0.00 0.00 0.00 79 1011.5
20260906001403 27 11 0.0 0.0 0.00 0.00 0.00 79 1011.6
20260906000903 27 11 0.0 1.6 0.00 0.00 0.00 78 1011.6
20260906000405 27 11 0.0 1.6 0.00 0.00 0.00 77 1011.6
20260905235903 27 11 0.0 1.6 0.00 0.00 0.00 76 1011.8
20260905235403 27 11 1.6 3.2 0.00 0.00 0.00 75 1011.8
20260905234905 28 11 1.6 3.2 0.00 0.00 0.00 74 1011.8
20260905234404 28 11 1.6 3.2 0.00 0.00 0.00 73 1011.8
20260905233903 28 11 1.6 3.2 0.00 0.00 0.00 71 1011.9
20260905233404 28 11 1.6 1.6 0.00 0.00 0.00 70 1011.7
20260905232905 28 11 0.0 0.0 0.00 0.00 0.00 70 1011.7
20260905232404 28 11 0.0 0.0 0.00 0.00 0.00 69 1011.7
20260905231405 29 11 0.0 0.0 0.00 0.00 0.00 68 1011.4
20260905225905 30 11 1.6 3.2 0.00 0.00 0.00 64 1011.4
20260905225403 30 11 1.6 3.2 0.00 0.00 0.00 64 1011.0
20260905224904 31 11 1.6 3.2 0.00 0.00 0.00 62 1011.0
20260905224405 31 11 1.6 3.2 0.00 0.00 0.00 63 1011.0
20260905222904 32 11 1.6 4.8 0.00 0.00 0.00 60 1011.7
20260905222404 32 11 1.6 4.8 0.00 0.00 0.00 61 1011.7
20260905221904 32 11 1.6 3.2 0.00 0.00 0.00 60 1011.7
20260905221405 32 11 0.0 1.6 0.00 0.00 0.00 60 1012.1
20260905220904 32 11 1.6 3.2 0.00 0.00 0.00 60 1012.1
20260905220404 32 11 1.6 4.8 0.00 0.00 0.00 60 1012.1